FFT2833 KMCO-KMKE

Flight info

Callsign FFT2833
Flight time N/A
Altitude 38000
Route JEEMY3 PAINN SHRKS Q77 TEUFL VXV J99 IIU J89 MACES VINNE BRAVE EXARR
Aircraft A20N/M-SDE2E3FGHIRWXY/LB1

Departure

Time 2026-04-20 20:31
Airport Orlando International Airport (KMCO)

Arrival

Time N/A
Airport General Mitchell International Airport (KMKE)
Time Latitude Longitude Altitude Speed Heading
2026-04-20 20:05 28.43506 -81.31497 90 ft 0 kts 71°
2026-04-20 20:13 28.43505 -81.31499 90 ft 1 kts 71°
2026-04-20 20:14 28.43501 -81.31514 90 ft 2 kts 71°
2026-04-20 20:14 28.43496 -81.31531 90 ft 2 kts 85°
2026-04-20 20:14 28.43497 -81.31548 90 ft 2 kts 101°
2026-04-20 20:14 28.43501 -81.31564 90 ft 2 kts 118°
2026-04-20 20:15 28.43510 -81.31578 90 ft 2 kts 134°
2026-04-20 20:15 28.43522 -81.31589 90 ft 2 kts 151°
2026-04-20 20:15 28.43529 -81.31593 90 ft 1 kts 160°
2026-04-20 20:15 28.43532 -81.31595 90 ft 0 kts 158°
2026-04-20 20:20 28.43531 -81.31594 90 ft 1 kts 158°
2026-04-20 20:20 28.43503 -81.31598 90 ft 8 kts 199°
2026-04-20 20:20 28.43441 -81.31651 90 ft 13 kts 219°
2026-04-20 20:21 28.43351 -81.31702 90 ft 14 kts 194°
2026-04-20 20:21 28.43263 -81.31760 90 ft 15 kts 235°
2026-04-20 20:21 28.43206 -81.31858 91 ft 14 kts 237°
2026-04-20 20:21 28.43150 -81.31956 91 ft 15 kts 237°
2026-04-20 20:22 28.43078 -81.32010 92 ft 12 kts 172°
2026-04-20 20:22 28.42985 -81.31994 92 ft 13 kts 173°
2026-04-20 20:22 28.42886 -81.31994 92 ft 14 kts 176°
2026-04-20 20:22 28.42785 -81.31992 92 ft 15 kts 179°
2026-04-20 20:23 28.42677 -81.31987 92 ft 15 kts 177°
2026-04-20 20:23 28.42564 -81.31986 92 ft 16 kts 180°
2026-04-20 20:23 28.42450 -81.31986 92 ft 16 kts 179°
2026-04-20 20:23 28.42329 -81.31984 92 ft 19 kts 180°
2026-04-20 20:24 28.42260 -81.31881 91 ft 19 kts 88°
2026-04-20 20:24 28.42271 -81.31724 89 ft 19 kts 91°
2026-04-20 20:24 28.42271 -81.31570 88 ft 18 kts 90°
2026-04-20 20:24 28.42267 -81.31433 88 ft 17 kts 91°
2026-04-20 20:25 28.42268 -81.31294 87 ft 17 kts 92°
2026-04-20 20:25 28.42253 -81.31158 87 ft 17 kts 98°
2026-04-20 20:25 28.42234 -81.31021 87 ft 17 kts 96°
2026-04-20 20:25 28.42235 -81.30885 87 ft 17 kts 86°
2026-04-20 20:26 28.42248 -81.30752 87 ft 16 kts 81°
2026-04-20 20:26 28.42265 -81.30621 88 ft 16 kts 85°
2026-04-20 20:26 28.42281 -81.30479 89 ft 20 kts 84°
2026-04-20 20:26 28.42274 -81.30318 89 ft 20 kts 88°
2026-04-20 20:27 28.42275 -81.30148 90 ft 22 kts 90°
2026-04-20 20:27 28.42279 -81.29968 90 ft 23 kts 94°
2026-04-20 20:27 28.42254 -81.29813 90 ft 15 kts 136°
2026-04-20 20:27 28.42152 -81.29791 90 ft 15 kts 180°
2026-04-20 20:28 28.42035 -81.29790 90 ft 18 kts 179°
2026-04-20 20:28 28.41896 -81.29786 89 ft 21 kts 180°
2026-04-20 20:28 28.41716 -81.29787 89 ft 30 kts 179°
2026-04-20 20:28 28.41512 -81.29784 87 ft 28 kts 178°
2026-04-20 20:29 28.41301 -81.29779 86 ft 31 kts 178°
2026-04-20 20:29 28.41065 -81.29779 84 ft 35 kts 181°
2026-04-20 20:29 28.40836 -81.29764 83 ft 27 kts 141°
2026-04-20 20:29 28.40830 -81.29705 83 ft 0 kts 107°
2026-04-20 20:30 28.40828 -81.29702 83 ft 0 kts 123°
2026-04-20 20:30 28.40828 -81.29701 83 ft 0 kts 113°
2026-04-20 20:30 28.40826 -81.29689 83 ft 8 kts 104°
2026-04-20 20:30 28.40859 -81.29564 83 ft 22 kts 19°
2026-04-20 20:31 28.40984 -81.29559 84 ft 37 kts
2026-04-20 20:31 28.41498 -81.29561 87 ft 108 kts 359°
2026-04-20 20:31 28.42457 -81.29564 181 ft 154 kts
2026-04-20 20:31 28.43493 -81.29591 901 ft 149 kts
2026-04-20 20:32 28.44530 -81.29700 1486 ft 160 kts
2026-04-20 20:32 28.45669 -81.29429 1997 ft 174 kts 31°
2026-04-20 20:32 28.46592 -81.28773 2531 ft 188 kts 34°
2026-04-20 20:32 28.47736 -81.27924 3139 ft 206 kts 33°
2026-04-20 20:33 28.49005 -81.27024 3753 ft 224 kts 32°
2026-04-20 20:33 28.50400 -81.26084 4359 ft 242 kts 27°
2026-04-20 20:33 28.52023 -81.25422 5091 ft 255 kts 13°
2026-04-20 20:33 28.53815 -81.25170 5980 ft 262 kts
2026-04-20 20:34 28.55640 -81.25115 6885 ft 266 kts 359°
2026-04-20 20:34 28.57477 -81.25260 7818 ft 269 kts 349°
2026-04-20 20:34 28.59244 -81.25922 8747 ft 271 kts 334°
2026-04-20 20:34 28.60860 -81.27017 9691 ft 272 kts 328°
2026-04-20 20:35 28.62463 -81.28200 10546 ft 277 kts 327°
2026-04-20 20:35 28.64119 -81.29430 11053 ft 293 kts 327°
2026-04-20 20:35 28.65882 -81.30731 11482 ft 311 kts 327°
2026-04-20 20:35 28.67751 -81.32105 11877 ft 329 kts 327°
2026-04-20 20:36 28.69707 -81.33540 12267 ft 345 kts 327°
2026-04-20 20:36 28.71746 -81.35024 12958 ft 351 kts 328°
2026-04-20 20:36 28.73933 -81.36298 13770 ft 354 kts 335°
2026-04-20 20:36 28.76288 -81.37221 14500 ft 360 kts 342°
2026-04-20 20:37 28.78729 -81.37823 15172 ft 366 kts 345°
2026-04-20 20:37 28.81257 -81.38359 15825 ft 371 kts 345°
2026-04-20 20:37 28.83800 -81.38886 16476 ft 375 kts 345°
2026-04-20 20:37 28.86404 -81.39428 17107 ft 379 kts 344°
2026-04-20 20:38 28.88971 -81.39965 17749 ft 382 kts 344°
2026-04-20 20:38 28.91602 -81.40518 18401 ft 385 kts 343°
2026-04-20 20:38 28.94246 -81.41067 19017 ft 389 kts 345°
2026-04-20 20:38 28.96952 -81.41482 19591 ft 396 kts 347°
2026-04-20 20:39 28.99718 -81.41804 20157 ft 400 kts 348°
2026-04-20 20:39 29.02537 -81.42113 20694 ft 404 kts 348°
2026-04-20 20:39 29.05343 -81.42418 21233 ft 408 kts 348°
2026-04-20 20:39 29.08155 -81.42725 21773 ft 411 kts 348°
2026-04-20 20:40 29.11040 -81.43037 22301 ft 415 kts 348°
2026-04-20 20:40 29.13956 -81.43321 22790 ft 419 kts 348°
2026-04-20 20:40 29.16855 -81.43594 23306 ft 422 kts 348°
2026-04-20 20:40 29.19801 -81.43866 23820 ft 425 kts 348°
2026-04-20 20:41 29.22753 -81.44144 24305 ft 427 kts 348°
2026-04-20 20:41 29.25694 -81.44418 24782 ft 429 kts 347°
2026-04-20 20:41 29.28700 -81.44706 25216 ft 432 kts 347°
2026-04-20 20:41 29.31710 -81.44993 25665 ft 434 kts 347°
2026-04-20 20:42 29.34736 -81.45279 26108 ft 436 kts 347°
2026-04-20 20:42 29.37747 -81.45566 26541 ft 437 kts 347°
2026-04-20 20:42 29.40798 -81.45856 26928 ft 439 kts 347°
2026-04-20 20:42 29.43841 -81.46146 27293 ft 441 kts 347°
2026-04-20 20:43 29.46895 -81.46439 27657 ft 443 kts 347°
2026-04-20 20:43 29.49958 -81.46731 28017 ft 443 kts 347°
2026-04-20 20:43 29.53052 -81.47025 28415 ft 443 kts 347°
2026-04-20 20:43 29.56105 -81.47315 28874 ft 441 kts 346°
2026-04-20 20:44 29.59164 -81.47601 29300 ft 440 kts 346°
2026-04-20 20:44 29.62207 -81.47878 29824 ft 436 kts 346°
2026-04-20 20:44 29.65225 -81.48145 30359 ft 432 kts 346°
2026-04-20 20:44 29.68198 -81.48411 30741 ft 432 kts 345°
2026-04-20 20:45 29.71227 -81.48687 31089 ft 432 kts 345°
2026-04-20 20:45 29.74224 -81.48959 31480 ft 431 kts 345°
2026-04-20 20:45 29.77195 -81.49232 31834 ft 431 kts 345°
2026-04-20 20:45 29.80168 -81.49502 32196 ft 430 kts 345°
2026-04-20 20:46 29.83148 -81.49779 32526 ft 429 kts 343°
2026-04-20 20:46 29.86134 -81.50171 32800 ft 426 kts 341°
2026-04-20 20:46 29.89032 -81.50726 33094 ft 421 kts 338°
2026-04-20 20:46 29.91891 -81.51452 33423 ft 416 kts 334°
2026-04-20 20:47 29.94665 -81.52323 33706 ft 412 kts 332°
2026-04-20 20:47 29.97403 -81.53286 33919 ft 412 kts 332°
2026-04-20 20:47 30.00125 -81.54263 34157 ft 411 kts 332°
2026-04-20 20:47 30.02842 -81.55236 34476 ft 408 kts 332°
2026-04-20 20:48 30.05555 -81.56209 34809 ft 405 kts 331°
2026-04-20 20:48 30.08217 -81.57158 35095 ft 402 kts 332°
2026-04-20 20:48 30.10899 -81.58122 35367 ft 400 kts 331°
2026-04-20 20:48 30.13552 -81.59069 35596 ft 400 kts 331°
2026-04-20 20:49 30.16206 -81.60026 35807 ft 400 kts 331°
2026-04-20 20:49 30.18853 -81.60978 36079 ft 399 kts 331°
2026-04-20 20:49 30.21501 -81.61927 36355 ft 397 kts 331°
2026-04-20 20:49 30.24149 -81.62882 36595 ft 396 kts 332°
2026-04-20 20:50 30.26657 -81.63780 36805 ft 396 kts 331°
2026-04-20 20:50 30.29172 -81.64685 36955 ft 396 kts 331°
2026-04-20 20:50 30.31917 -81.65675 37112 ft 396 kts 331°
2026-04-20 20:50 30.34399 -81.66569 37383 ft 395 kts 330°
2026-04-20 20:51 30.36857 -81.67449 37600 ft 394 kts 331°
2026-04-20 20:51 30.39265 -81.68323 37710 ft 395 kts 331°
2026-04-20 20:51 30.41872 -81.69260 37835 ft 395 kts 331°
2026-04-20 20:51 30.44489 -81.70203 37993 ft 395 kts 331°
2026-04-20 20:52 30.47096 -81.71139 38164 ft 394 kts 330°
2026-04-20 20:52 30.49729 -81.72097 38215 ft 396 kts 331°
2026-04-20 20:52 30.55064 -81.74023 38198 ft 401 kts 332°
2026-04-20 20:53 30.60432 -81.75928 38199 ft 408 kts 333°
2026-04-20 20:53 30.66012 -81.77377 38206 ft 418 kts 338°
2026-04-20 20:54 30.71777 -81.78545 38210 ft 421 kts 338°
2026-04-20 20:54 30.74676 -81.79134 38317 ft 420 kts 338°
2026-04-20 20:54 30.77553 -81.79717 38447 ft 418 kts 338°
2026-04-20 20:55 30.80407 -81.80292 38616 ft 415 kts 338°
2026-04-20 20:55 30.83248 -81.80859 38779 ft 413 kts 338°
2026-04-20 20:55 30.86085 -81.81422 38943 ft 411 kts 338°
2026-04-20 20:55 30.88883 -81.81976 39116 ft 409 kts 338°
2026-04-20 20:56 30.91680 -81.82526 39297 ft 407 kts 338°
2026-04-20 20:56 30.94479 -81.83071 39481 ft 404 kts 339°
2026-04-20 20:56 30.97221 -81.83604 39658 ft 402 kts 338°
2026-04-20 20:56 30.99975 -81.84134 39840 ft 400 kts 338°
2026-04-20 20:57 31.02717 -81.84660 40008 ft 398 kts 339°
2026-04-20 20:57 31.05452 -81.85179 40198 ft 396 kts 339°
2026-04-20 20:57 31.08155 -81.85689 40393 ft 393 kts 339°
2026-04-20 20:57 31.10857 -81.86197 40582 ft 391 kts 339°
2026-04-20 20:58 31.13540 -81.86696 40778 ft 388 kts 339°
2026-04-20 20:58 31.16199 -81.87187 40950 ft 387 kts 339°
2026-04-20 20:58 31.18858 -81.87676 41136 ft 385 kts 339°
2026-04-20 20:58 31.21497 -81.88158 41301 ft 383 kts 340°
2026-04-20 20:59 31.24102 -81.88631 41479 ft 381 kts 339°
2026-04-20 20:59 31.26716 -81.89103 41639 ft 379 kts 340°
2026-04-20 20:59 31.29320 -81.89569 41815 ft 376 kts 340°
2026-04-20 20:59 31.31896 -81.90026 41978 ft 374 kts 339°
2026-04-20 21:00 31.34463 -81.90479 42136 ft 372 kts 340°
2026-04-20 21:00 31.37011 -81.90926 42278 ft 370 kts 340°
2026-04-20 21:00 31.39551 -81.91366 42412 ft 368 kts 340°
2026-04-20 21:00 31.42079 -81.91802 42523 ft 366 kts 340°
2026-04-20 21:01 31.44589 -81.92234 42642 ft 365 kts 340°
2026-04-20 21:01 31.47118 -81.92664 42761 ft 363 kts 340°
2026-04-20 21:01 31.49606 -81.93087 42880 ft 361 kts 341°
2026-04-20 21:01 31.52078 -81.93503 42982 ft 359 kts 340°
2026-04-20 21:02 31.57021 -81.94327 43168 ft 356 kts 341°
2026-04-20 21:02 31.61891 -81.95129 43324 ft 353 kts 340°
2026-04-20 21:03 31.66749 -81.95918 43441 ft 351 kts 341°
2026-04-20 21:03 31.71598 -81.96710 43349 ft 355 kts 341°
2026-04-20 21:04 31.76543 -81.97531 43235 ft 359 kts 340°
2026-04-20 21:04 31.81492 -81.98360 43219 ft 359 kts 340°
2026-04-20 21:05 31.86426 -81.99187 43300 ft 358 kts 340°
2026-04-20 21:05 31.91356 -82.00008 43412 ft 356 kts 340°
2026-04-20 21:06 31.96248 -82.00816 43533 ft 354 kts 341°
2026-04-20 21:06 32.01094 -82.01608 43552 ft 354 kts 340°
2026-04-20 21:07 32.05999 -82.02416 43478 ft 356 kts 340°
2026-04-20 21:07 32.10903 -82.03230 43502 ft 356 kts 340°
2026-04-20 21:08 32.15800 -82.04039 43594 ft 355 kts 340°
2026-04-20 21:08 32.20689 -82.04842 43716 ft 353 kts 341°
2026-04-20 21:09 32.25546 -82.05635 43777 ft 352 kts 341°
2026-04-20 21:09 32.30404 -82.06426 43787 ft 353 kts 340°
2026-04-20 21:10 32.35272 -82.07224 43783 ft 353 kts 340°
2026-04-20 21:10 32.40134 -82.08019 43843 ft 352 kts 340°
2026-04-20 21:11 32.44961 -82.08801 43960 ft 350 kts 340°
2026-04-20 21:11 32.49799 -82.09585 43879 ft 352 kts 340°
2026-04-20 21:12 32.54653 -82.10377 43865 ft 353 kts 340°
2026-04-20 21:12 32.59537 -82.11175 43898 ft 352 kts 340°
2026-04-20 21:13 32.64357 -82.11957 43933 ft 351 kts 340°
2026-04-20 21:13 32.69180 -82.12736 44006 ft 349 kts 340°
2026-04-20 21:14 32.73985 -82.13506 44025 ft 348 kts 340°
2026-04-20 21:14 32.78797 -82.14278 43989 ft 349 kts 340°
2026-04-20 21:15 32.83610 -82.15050 43996 ft 349 kts 340°
2026-04-20 21:15 32.88409 -82.15817 44028 ft 347 kts 340°
2026-04-20 21:16 32.93203 -82.16580 44034 ft 347 kts 340°
2026-04-20 21:16 32.97992 -82.17341 44051 ft 346 kts 340°
2026-04-20 21:17 33.02729 -82.18086 44083 ft 344 kts 340°
2026-04-20 21:17 33.07494 -82.18836 43971 ft 347 kts 340°
2026-04-20 21:18 33.12331 -82.19608 43858 ft 349 kts 340°
2026-04-20 21:18 33.17133 -82.20379 43847 ft 349 kts 340°
2026-04-20 21:19 33.21951 -82.21152 43890 ft 348 kts 340°
2026-04-20 21:20 33.29114 -82.22291 43875 ft 348 kts 340°
2026-04-20 21:20 33.33941 -82.23071 43717 ft 352 kts 340°
2026-04-20 21:21 33.38799 -82.23865 43707 ft 352 kts 340°
2026-04-20 21:21 33.43680 -82.24662 43722 ft 352 kts 341°
2026-04-20 21:22 33.48504 -82.25446 43759 ft 351 kts 340°
2026-04-20 21:22 33.53371 -82.26237 43794 ft 350 kts 341°
2026-04-20 21:23 33.58203 -82.27020 43762 ft 351 kts 341°
2026-04-20 21:23 33.63031 -82.27805 43727 ft 352 kts 340°
2026-04-20 21:24 33.67886 -82.28597 43752 ft 351 kts 341°
2026-04-20 21:24 33.72752 -82.29389 43670 ft 353 kts 341°
2026-04-20 21:25 33.77643 -82.30196 43606 ft 355 kts 341°
2026-04-20 21:25 33.82034 -82.30921 43620 ft 354 kts 341°
2026-04-20 21:26 33.86901 -82.31722 43678 ft 353 kts 341°
2026-04-20 21:26 33.91770 -82.32519 43699 ft 352 kts 341°
2026-04-20 21:27 33.96626 -82.33313 43679 ft 353 kts 341°
2026-04-20 21:27 34.01526 -82.34119 43572 ft 355 kts 341°
2026-04-20 21:28 34.06397 -82.34926 43575 ft 355 kts 341°
2026-04-20 21:28 34.11300 -82.35735 43596 ft 354 kts 341°
2026-04-20 21:29 34.16179 -82.36539 43613 ft 353 kts 342°
2026-04-20 21:29 34.21079 -82.37348 43577 ft 355 kts 342°
2026-04-20 21:30 34.25973 -82.38159 43563 ft 355 kts 342°
2026-04-20 21:30 34.30874 -82.38972 43578 ft 355 kts 342°
2026-04-20 21:31 34.35753 -82.39780 43627 ft 354 kts 342°
2026-04-20 21:31 34.40631 -82.40585 43660 ft 354 kts 342°
2026-04-20 21:32 34.45543 -82.41400 43585 ft 355 kts 343°
2026-04-20 21:32 34.50434 -82.42213 43569 ft 356 kts 342°
2026-04-20 21:33 34.55323 -82.43029 43550 ft 357 kts 343°
2026-04-20 21:33 34.60264 -82.43854 43562 ft 357 kts 342°
2026-04-20 21:34 34.65173 -82.44672 43650 ft 355 kts 343°
2026-04-20 21:34 34.70061 -82.45483 43672 ft 355 kts 343°
2026-04-20 21:35 34.74983 -82.46306 43606 ft 357 kts 343°
2026-04-20 21:35 34.79910 -82.47131 43561 ft 357 kts 343°
2026-04-20 21:36 34.84836 -82.47956 43593 ft 357 kts 344°
2026-04-20 21:36 34.89720 -82.48772 43615 ft 356 kts 344°
2026-04-20 21:37 34.94644 -82.49593 43663 ft 356 kts 343°
2026-04-20 21:37 34.99544 -82.50412 43592 ft 356 kts 344°
2026-04-20 21:38 35.04461 -82.51233 43639 ft 355 kts 344°
2026-04-20 21:38 35.09359 -82.52048 43668 ft 355 kts 343°
2026-04-20 21:39 35.14276 -82.52870 43625 ft 357 kts 344°
2026-04-20 21:39 35.19242 -82.53705 43648 ft 358 kts 344°
2026-04-20 21:40 35.24181 -82.54533 43712 ft 357 kts 343°
2026-04-20 21:40 35.29100 -82.55357 43751 ft 357 kts 343°
2026-04-20 21:41 35.34004 -82.56181 43756 ft 357 kts 344°
2026-04-20 21:41 35.38948 -82.57010 43803 ft 357 kts 344°
2026-04-20 21:42 35.43863 -82.57837 43720 ft 360 kts 343°
2026-04-20 21:42 35.48884 -82.58689 43662 ft 362 kts 344°
2026-04-20 21:43 35.53866 -82.59537 43703 ft 362 kts 343°
2026-04-20 21:43 35.58856 -82.60387 43757 ft 361 kts 344°
2026-04-20 21:44 35.63804 -82.61224 43819 ft 359 kts 343°
2026-04-20 21:44 35.68772 -82.62066 43781 ft 361 kts 344°
2026-04-20 21:45 35.72913 -82.62770 43776 ft 361 kts 343°